GFSSGP_925_thetae_012.txt.gz
Theta_e
309 312 318 318 317 321 323 325 325 337 344 340 338 341 344 345 350 352 344 343 341 338 331 329 328 328 328 328 327 328 331 333 331 326 321 317 316 316 316 315 316 319 323 321 321 317 311 310 310
314 318 319 317 318 322 324 324 343 342 341 337 337 337 339 347 345 345 344 344 341 338 335 331 330 330 330 330 330 331 334 332 326 322 318 315 314 314 313 313 317 322 325 324 321 315 314 314 313
320 320 314 316 319 323 324 328 336 341 337 336 335 334 333 342 343 342 344 343 342 338 336 335 332 332 332 332 333 333 332 327 323 319 317 314 311 311 309 316 319 323 324 320 316 315 315 314 314
316 315 314 317 318 321 323 330 339 338 336 335 334 334 330 331 339 342 343 342 341 340 337 332 332 333 334 334 333 333 329 324 321 317 316 312 308 307 314 315 316 316 315 315 315 315 315 315 315
317 315 314 316 320 321 325 336 336 339 338 334 332 331 330 335 337 343 342 341 340 338 333 332 333 333 334 334 333 332 327 322 319 316 315 309 307 311 315 315 315 315 315 316 316 316 316 317 316
315 315 315 316 318 321 323 335 334 335 336 333 334 331 333 334 338 341 339 339 338 335 335 333 333 334 335 333 332 331 325 320 318 314 312 310 313 315 315 316 315 316 316 316 317 317 317 317 317
317 315 316 318 320 324 323 335 334 334 333 332 333 337 331 335 339 336 334 335 334 329 334 329 332 335 335 334 332 330 322 318 316 313 312 316 317 316 316 316 316 316 317 317 317 317 317 316 319
316 317 317 319 321 324 330 334 331 329 332 331 329 330 336 340 339 332 328 332 331 333 335 333 333 334 334 334 331 325 319 318 316 313 317 317 317 316 323 326 316 315 316 317 317 317 316 317 319
316 315 317 320 322 333 330 330 330 330 328 331 329 326 329 341 340 339 337 328 327 327 330 334 331 333 333 330 327 322 317 315 318 318 326 327 328 327 328 322 315 315 315 316 317 317 319 320 321
315 317 319 331 333 333 331 330 329 328 329 335 336 328 330 339 339 340 339 330 330 332 333 334 333 333 331 329 327 320 320 326 326 328 328 329 329 324 322 325 322 323 325 321 323 320 320 320 319
316 317 320 327 328 328 328 330 329 330 331 331 335 338 340 338 338 339 339 337 334 334 335 334 332 333 332 329 326 325 326 327 330 329 330 328 329 328 327 326 328 326 324 323 321 321 320 318 316
316 317 319 326 326 327 328 329 324 325 327 325 330 335 338 338 338 337 335 335 335 335 335 335 333 329 327 325 324 324 327 328 329 330 329 329 329 328 326 326 324 322 321 320 321 320 316 313 313
317 319 319 320 322 323 326 326 325 324 326 327 328 334 336 337 336 333 331 333 333 332 330 330 330 326 325 325 329 329 331 331 331 332 330 330 328 324 321 320 320 321 319 319 317 314 313 311 311
318 319 317 318 320 326 325 325 326 328 328 332 331 332 334 334 331 329 329 330 331 329 330 329 328 328 328 331 330 327 328 327 324 329 330 329 327 325 323 323 320 318 318 314 312 311 311 310 310
319 319 316 321 321 324 327 324 326 330 331 331 330 330 330 330 328 329 328 328 330 330 329 326 328 332 332 329 326 326 321 324 327 328 330 330 327 326 322 316 316 316 316 311 310 310 310 310 309
318 317 316 322 322 322 320 322 324 330 329 330 328 328 328 327 327 327 327 327 330 328 328 329 331 330 329 327 323 321 324 324 321 321 320 320 317 315 316 315 314 313 312 311 311 310 310 309 310
318 319 323 321 322 318 316 320 323 328 329 328 329 329 329 327 326 325 325 328 329 328 329 331 330 328 324 323 323 325 322 318 315 315 314 314 314 314 314 314 314 312 311 310 311 310 310 310 309
319 318 321 320 319 316 316 320 322 325 327 328 329 330 330 329 327 325 324 327 330 329 329 331 330 329 323 326 323 322 318 317 315 314 314 313 312 312 312 312 311 311 311 310 309 309 310 309 308
320 319 318 318 317 316 320 320 322 323 329 330 330 330 331 330 329 327 325 327 331 330 329 330 329 327 325 326 321 319 317 316 314 313 312 311 311 310 310 310 310 310 309 308 307 307 307 307 305
319 319 317 318 317 317 318 320 321 323 324 326 329 330 330 330 330 330 328 327 330 331 331 330 328 328 328 324 322 321 318 315 313 313 311 311 311 310 309 309 308 307 307 307 306 304 304 305 304
319 319 320 319 317 318 324 322 321 322 323 324 325 327 329 330 332 331 329 330 331 332 332 330 329 328 323 321 320 317 315 314 314 313 312 311 310 308 307 304 303 303 304 305 304 303 304 303 302
322 323 321 322 324 320 323 326 328 326 323 325 327 327 327 329 331 331 332 331 333 332 331 330 328 322 320 318 317 315 315 313 312 311 308 306 302 301 299 298 298 298 299 301 303 303 303 303 301
323 322 322 321 322 324 325 325 328 325 327 326 327 328 329 330 331 332 332 332 331 330 330 327 322 318 316 316 316 314 312 311 308 303 302 300 299 298 298 298 299 299 299 299 301 303 303 301 300
323 321 323 320 321 332 325 327 327 327 326 328 326 328 329 330 332 332 332 330 330 330 326 321 318 315 315 315 313 311 307 304 303 301 300 299 299 298 298 298 299 300 300 301 303 302 300 299 299
321 322 323 326 331 329 322 325 328 326 326 329 329 328 329 331 332 332 332 331 329 325 321 317 315 314 314 312 307 304 303 302 301 300 299 299 298 298 298 297 299 300 301 301 301 300 299 299 298
322 318 326 332 331 327 323 323 321 326 327 327 329 329 331 332 332 331 329 327 324 321 318 316 314 314 312 306 304 303 302 301 301 300 299 298 298 297 296 297 298 299 301 299 299 299 298 298 297
317 321 321 322 329 329 322 318 318 323 322 323 329 329 331 330 328 327 325 321 320 318 317 315 314 313 308 304 304 303 301 301 300 300 299 297 297 297 296 296 297 298 300 298 299 298 298 297 295
321 320 324 324 325 324 319 321 324 324 323 322 328 329 329 328 325 323 321 319 318 318 317 315 314 312 306 305 304 302 302 301 300 299 298 297 297 296 296 296 296 296 297 299 298 297 296 295 295
321 320 320 319 327 335 332 322 319 320 321 323 325 329 327 326 324 321 319 319 318 318 316 315 314 309 306 305 303 302 301 301 300 299 298 297 296 296 296 296 296 296 296 295 295 295 294 295 294
321 323 320 334 325 333 334 324 320 320 319 321 323 326 327 325 323 321 320 319 319 318 316 315 313 308 306 305 303 301 301 301 300 299 298 297 296 296 295 295 295 295 295 295 295 294 293 293 293

GFSSGP_925_thetae_015.txt.gz
Theta_e
312 309 313 318 313 311 314 316 320 341 341 335 340 345 348 347 351 349 342 340 334 331 332 334 334 331 327 327 328 330 332 329 323 318 316 314 313 313 312 312 314 317 323 323 321 314 312 312 312
311 311 315 315 311 312 314 325 342 337 335 333 333 336 343 349 345 345 340 337 334 331 333 330 327 327 327 328 330 333 330 324 319 315 314 312 311 311 313 317 319 322 325 325 321 314 313 313 315
311 317 316 309 309 312 314 330 340 336 333 332 331 328 334 347 344 344 341 338 337 336 331 329 328 329 329 331 334 331 326 321 317 315 312 310 309 312 317 318 319 322 322 318 314 314 314 313 316
317 313 307 309 310 312 315 326 337 336 334 331 330 330 328 337 341 343 341 336 335 335 330 331 331 331 332 333 332 327 322 318 315 314 310 308 309 314 315 315 315 317 316 315 315 315 314 315 315
317 311 307 309 311 315 323 335 336 338 337 333 332 329 332 339 341 341 339 339 338 335 333 333 333 334 333 332 330 324 319 317 314 313 308 307 314 314 313 313 314 314 314 315 316 316 316 319 317
314 309 310 309 311 314 330 333 335 335 334 332 333 330 333 340 339 338 338 337 334 333 333 333 334 334 333 332 327 321 318 316 312 311 308 312 314 314 314 314 314 314 315 316 316 316 316 317 320
313 311 311 311 313 325 335 331 332 333 331 332 331 338 334 335 336 336 335 334 332 332 332 331 334 326 327 331 327 319 317 314 310 310 314 315 314 313 314 314 314 315 315 316 316 315 316 318 321
311 311 313 313 315 330 331 331 330 331 331 328 326 331 335 334 333 333 332 333 333 330 327 328 329 332 331 331 324 318 316 312 311 315 315 315 315 318 320 316 314 314 315 315 315 317 319 320 318
313 310 310 324 332 330 330 330 326 328 331 330 329 327 336 330 332 330 330 330 327 329 323 322 323 330 330 327 321 315 314 314 317 320 324 324 320 327 323 317 314 315 318 318 320 320 320 320 318
312 310 314 328 330 331 330 328 328 328 331 332 328 331 334 333 330 328 327 328 327 328 322 323 324 332 329 323 317 315 318 318 322 327 328 329 327 327 323 324 318 322 324 323 321 321 320 318 315
313 313 321 326 325 328 327 330 329 329 331 331 329 329 333 336 331 329 327 327 329 330 330 328 330 328 327 322 318 325 327 329 328 329 329 329 328 328 327 327 325 322 322 321 320 318 314 312 312
314 314 315 325 324 326 327 327 330 326 328 329 329 332 331 334 331 327 329 329 330 332 331 330 332 329 326 324 326 325 327 328 328 330 328 327 329 326 325 324 322 320 319 319 317 314 312 311 310
315 315 317 323 324 325 327 327 324 325 323 326 329 333 334 334 334 327 329 333 334 334 332 332 332 330 328 327 326 329 330 330 331 331 330 329 327 323 321 321 320 318 317 316 314 312 311 310 310
316 315 315 315 321 324 324 324 326 323 324 325 330 331 334 334 333 333 332 333 333 334 332 329 325 325 329 329 329 329 328 327 323 327 327 327 325 324 322 320 317 316 315 312 310 310 310 310 309
318 316 316 319 323 324 322 325 327 324 325 326 327 332 333 330 328 331 332 330 329 329 329 328 328 330 330 329 327 326 324 322 326 329 328 328 327 322 318 316 315 314 311 311 311 310 310 309 309
318 316 315 320 321 323 321 323 329 327 329 327 325 326 329 326 326 327 329 329 329 328 327 326 331 330 329 327 325 320 323 325 324 322 321 318 316 316 314 313 312 311 311 311 311 310 310 309 308
316 317 322 320 319 320 319 321 328 325 327 325 323 323 323 323 325 326 329 329 329 327 326 330 331 329 327 323 323 324 321 316 314 313 313 312 312 313 314 313 311 311 311 310 309 309 308 308 309
317 320 321 320 318 319 313 318 326 325 324 327 326 324 323 322 322 325 329 328 327 327 329 331 329 327 324 324 323 319 315 315 314 313 314 312 311 311 311 311 311 310 309 309 308 306 307 306 305
319 318 319 317 317 314 315 317 321 323 323 324 326 332 327 322 322 324 328 327 328 329 331 330 328 323 325 323 320 318 316 314 313 313 312 311 310 310 310 309 309 308 308 307 306 305 303 302 304
319 319 318 317 314 313 317 317 317 323 324 322 328 329 330 324 324 323 326 328 328 329 330 330 329 327 326 322 319 317 315 314 313 312 311 310 310 309 308 306 305 304 304 304 305 304 303 303 303
320 322 319 318 316 317 319 321 322 322 323 325 326 326 327 326 325 325 325 329 328 329 329 329 328 326 325 326 320 318 314 313 312 311 311 309 306 305 302 299 298 298 298 300 301 303 303 303 302
321 321 322 321 320 319 317 322 325 323 321 321 324 326 326 325 327 326 326 329 329 329 329 329 328 328 324 320 318 315 313 313 312 309 304 303 302 301 299 298 298 298 298 298 298 301 303 302 300
320 320 321 322 320 324 322 323 324 322 322 322 322 322 321 327 328 326 327 331 331 331 331 330 327 320 319 317 315 315 313 309 304 304 302 301 299 298 298 298 298 297 299 301 302 302 302 300 299
321 320 320 321 319 325 324 323 326 324 323 323 325 324 324 326 325 327 330 332 331 331 330 325 320 316 316 315 313 313 310 306 305 301 300 299 299 298 298 298 297 299 300 302 301 300 299 299 298
322 322 323 322 325 324 325 327 323 323 322 322 325 322 323 325 327 329 328 328 330 329 321 318 316 315 315 314 311 308 306 305 303 301 300 298 298 298 297 297 297 298 300 300 299 299 298 298 297
321 319 324 325 327 329 325 326 323 321 322 323 323 321 322 326 326 328 329 329 325 321 317 315 315 314 314 312 309 306 303 303 302 300 299 298 298 297 297 296 296 297 300 299 298 298 297 297 297
320 320 319 326 327 330 327 322 321 322 323 324 322 320 325 327 327 330 328 324 320 318 316 315 314 313 312 309 306 303 302 301 300 300 298 297 297 297 296 296 296 296 296 299 298 298 297 297 296
320 319 320 322 326 323 317 320 322 322 322 324 323 322 326 326 324 323 322 320 319 319 317 315 314 313 308 304 303 302 301 301 300 299 298 297 297 296 296 296 295 295 295 296 297 297 296 294 295
320 318 318 319 319 321 323 320 317 318 319 322 324 326 326 324 321 319 318 318 318 318 317 316 313 312 306 304 304 303 301 300 300 299 298 297 297 296 296 295 295 295 295 295 295 294 294 293 293
318 320 320 317 318 319 318 320 317 316 317 318 318 325 324 323 320 317 316 316 316 317 317 315 314 311 306 304 304 302 301 301 300 299 298 297 296 296 295 295 295 295 295 295 294 294 294 293 292

GFSSGP_925_thetae_018.txt.gz
Theta_e
312 311 312 316 312 308 312 313 316 332 339 336 343 346 348 346 350 342 340 340 339 341 340 339 337 333 327 327 329 330 327 320 317 315 313 311 311 311 313 315 316 319 319 313 313 315 316 316 318
312 310 314 311 308 310 311 314 336 337 334 331 330 339 345 350 345 343 340 338 339 339 340 339 336 328 327 329 331 329 323 318 315 314 312 310 310 314 315 314 315 315 315 313 312 313 316 317 317
311 315 317 312 305 309 311 326 336 333 331 331 330 326 338 348 342 339 339 336 336 338 338 336 329 327 329 332 331 325 319 316 315 312 310 309 313 316 315 313 315 314 314 314 314 317 315 317 317
316 311 308 306 308 309 312 322 335 333 333 331 327 329 333 340 343 341 336 332 332 335 335 330 328 328 331 332 327 320 316 315 313 311 309 312 315 315 315 314 314 314 314 314 315 319 317 316 317
316 305 306 306 308 311 314 327 335 336 334 332 327 332 336 338 339 338 337 337 336 335 330 329 329 331 332 330 323 319 316 315 311 309 309 313 312 312 312 313 313 314 315 315 315 317 320 316 317
313 305 307 307 311 321 333 331 334 334 333 331 328 335 340 337 338 337 336 335 333 333 332 332 333 333 332 326 321 318 315 313 309 307 312 312 312 312 313 313 314 315 316 315 315 316 319 319 318
313 310 312 312 313 324 333 330 332 333 332 331 331 337 337 335 333 334 333 331 332 333 333 327 325 324 323 325 319 316 313 311 308 310 313 313 313 313 314 314 315 315 315 314 315 319 320 319 320
310 308 312 311 331 332 330 330 327 330 331 326 326 332 339 334 332 332 332 332 332 332 328 322 321 321 323 327 320 316 312 309 312 314 314 314 314 314 314 313 314 315 315 319 319 319 320 319 317
308 309 309 315 330 330 329 330 327 327 330 328 329 334 332 331 333 331 330 329 328 328 328 322 323 326 328 325 318 315 311 313 316 316 315 323 324 321 316 315 315 317 317 321 320 320 319 316 314
311 310 311 315 329 330 328 328 328 330 332 332 332 330 331 330 329 330 328 327 325 324 327 327 325 323 330 322 317 315 313 316 319 323 323 325 326 324 322 318 319 324 323 322 321 321 317 314 312
312 312 314 325 324 326 327 328 328 329 332 329 333 332 330 329 329 328 327 328 322 321 323 324 326 328 328 320 316 316 317 324 327 327 328 325 325 326 325 326 320 322 320 319 315 313 312 311 310
313 313 313 323 325 324 326 327 329 327 328 328 333 329 332 329 327 327 328 328 325 323 323 324 330 330 325 317 320 325 325 327 329 329 328 327 326 325 323 322 320 318 317 316 314 313 311 310 310
312 313 313 320 322 324 326 327 324 323 325 328 332 333 331 328 327 327 328 328 330 330 325 328 330 328 323 319 324 327 329 329 329 329 328 328 326 322 320 319 317 315 314 314 312 310 309 309 309
316 314 314 322 323 324 326 326 323 323 325 329 331 333 331 328 327 328 328 330 331 331 330 329 330 329 326 326 326 327 329 330 330 329 329 327 324 321 320 319 317 315 312 311 310 310 310 309 309
318 315 316 319 320 322 322 324 326 322 325 331 331 332 333 329 327 328 329 332 332 332 331 332 331 330 327 327 329 330 331 328 326 327 327 326 326 324 320 316 312 311 311 311 310 310 309 309 308
317 313 315 319 321 321 322 328 327 324 325 326 327 331 333 332 329 330 332 333 333 332 330 327 328 328 329 328 325 324 325 325 327 328 327 324 319 317 315 312 311 310 310 310 310 309 309 308 308
314 316 320 318 319 322 320 329 328 325 326 326 328 331 328 330 330 331 331 330 332 331 329 329 329 328 328 325 321 321 324 322 320 318 316 315 314 313 313 312 311 310 310 309 308 307 306 306 307
316 320 320 319 318 321 321 324 328 325 323 324 323 323 324 327 326 329 327 328 330 329 328 329 329 327 325 322 323 321 316 313 313 312 312 312 312 312 312 311 310 310 309 308 307 306 305 303 303
318 318 318 317 317 316 315 323 325 323 324 325 327 326 324 326 325 328 327 327 327 326 327 330 329 325 323 324 318 314 314 313 313 313 312 310 310 310 310 310 309 308 306 305 304 304 303 302 303
318 318 317 317 315 314 314 325 324 323 325 325 327 327 325 323 322 327 327 326 326 325 328 330 328 324 324 322 317 315 314 313 313 312 311 310 310 309 309 307 306 304 303 303 303 303 303 303 302
318 319 320 318 313 315 317 319 322 324 324 324 324 325 325 324 322 325 326 326 326 328 330 329 326 323 324 322 317 315 313 312 311 311 310 310 310 308 307 303 300 298 298 297 298 301 303 303 299
318 318 320 320 317 316 315 320 321 321 320 326 324 324 320 324 322 322 326 325 326 329 330 330 328 324 325 322 318 316 313 312 311 311 310 307 305 303 300 299 298 298 297 299 300 300 301 302 300
319 317 319 321 319 318 321 321 320 322 318 324 324 325 322 323 322 321 326 326 327 329 329 329 329 328 324 324 319 316 313 312 311 307 302 301 299 298 298 298 297 297 298 301 301 301 300 299 298
319 319 320 318 319 321 322 319 318 322 321 319 319 325 324 323 323 323 327 327 326 328 329 328 328 327 326 324 321 317 314 312 306 301 301 299 298 298 298 297 296 298 299 301 300 300 298 297 297
320 319 321 320 320 320 323 322 319 319 320 320 319 319 323 322 324 325 327 328 328 328 329 327 325 321 319 318 317 315 312 310 305 302 300 299 298 297 297 296 296 297 299 300 299 298 298 297 297
320 317 319 321 323 322 323 325 323 320 319 319 318 319 321 324 326 327 328 328 328 326 325 322 319 317 315 314 314 312 307 305 303 301 299 298 297 297 296 296 296 296 298 299 298 298 297 296 297
318 318 318 322 322 325 323 322 314 321 321 321 320 319 322 324 326 327 326 327 325 322 319 318 315 314 313 311 309 306 304 303 302 300 298 297 297 296 296 295 295 295 295 296 296 298 297 297 297
319 317 319 320 325 327 318 319 319 323 323 322 323 319 319 324 325 325 325 323 321 317 316 316 315 313 311 309 306 304 302 302 301 299 298 297 296 296 295 295 295 295 295 295 295 295 294 294 293
319 317 316 318 317 319 321 319 313 318 319 319 320 320 319 324 326 325 322 321 320 315 314 314 314 313 311 311 307 303 302 301 300 299 298 298 297 296 295 295 295 295 295 295 295 294 294 293 293
319 318 316 315 316 316 315 319 316 313 315 318 320 320 321 324 324 323 321 319 316 315 314 314 314 314 313 311 305 303 302 301 300 299 299 298 297 297 296 295 294 294 295 295 294 294 293 293 292

GFSSGP_925_thetae_021.txt.gz
Theta_e
313 312 312 314 313 307 310 312 312 321 341 338 343 346 347 346 345 340 339 339 341 341 339 337 333 327 326 327 329 325 319 315 313 311 311 310 310 313 313 314 314 316 323 324 323 322 316 318 322
312 310 314 307 307 309 309 311 317 330 335 332 336 342 345 351 343 342 340 339 341 340 339 337 331 327 327 329 328 323 318 315 312 311 310 310 314 314 314 313 313 312 316 322 321 321 316 315 319
312 317 314 309 304 308 309 314 335 333 331 330 330 330 341 347 341 340 340 340 340 341 339 336 331 329 329 330 327 320 315 314 311 311 312 315 315 314 314 313 313 314 318 317 316 317 317 315 314
316 312 305 305 308 307 310 312 334 332 331 329 328 333 338 340 341 339 339 339 337 339 339 334 330 329 330 329 322 317 315 315 312 315 316 318 314 316 315 314 315 314 317 319 316 316 317 316 314
313 304 306 305 307 308 317 330 331 335 333 331 330 341 342 339 338 336 337 337 338 338 337 332 328 329 331 324 318 316 316 313 311 312 316 317 318 318 316 314 314 315 315 317 319 317 317 316 315
310 303 306 307 309 311 331 329 333 334 332 330 336 338 341 338 337 336 335 335 335 334 332 330 331 332 328 321 317 316 314 311 310 312 314 314 316 315 314 314 315 315 315 316 320 319 318 317 316
310 308 311 311 312 326 331 328 332 332 331 331 332 339 338 336 335 334 332 330 330 329 330 328 329 327 323 322 319 315 314 309 310 314 314 313 313 313 313 315 315 314 314 318 320 319 319 320 316
309 308 311 309 327 328 329 329 326 329 330 327 327 338 338 335 333 332 330 330 329 326 325 323 322 324 323 321 318 313 311 308 313 314 314 313 313 314 314 315 315 316 317 318 319 319 317 316 315
306 308 308 309 330 327 328 329 326 329 331 334 333 334 334 332 331 330 330 329 323 323 323 323 323 322 319 320 317 313 310 311 314 314 314 314 315 314 315 315 316 317 319 320 320 319 316 314 313
309 308 311 310 325 327 327 327 329 331 334 334 333 333 333 332 330 329 329 328 324 322 320 319 319 320 323 324 318 313 312 316 315 316 319 323 322 317 316 318 322 322 321 321 321 318 314 313 311
310 312 310 320 324 326 325 327 327 330 331 332 336 333 331 331 330 329 327 326 326 324 321 319 321 326 328 323 319 313 315 317 317 320 325 326 324 323 322 322 322 321 319 317 315 312 311 310 310
313 311 312 315 323 324 327 327 329 328 329 331 330 329 329 329 329 328 328 324 325 328 326 323 323 327 329 324 318 315 318 319 323 327 325 325 326 325 324 320 319 318 315 313 312 311 310 309 309
311 312 312 315 323 323 325 325 323 324 330 329 329 329 329 328 327 327 327 325 323 324 325 323 324 328 329 320 317 317 322 327 328 327 327 326 325 323 321 319 317 315 313 313 311 310 309 309 308
314 315 314 317 322 324 324 324 324 324 331 330 331 330 327 326 327 327 327 327 326 325 324 328 329 329 327 319 319 324 328 329 328 328 327 325 323 321 318 316 315 313 311 310 310 309 309 309 308
317 315 318 320 322 324 322 324 324 324 330 334 333 330 326 327 327 327 327 327 326 324 325 326 329 328 324 319 324 327 329 329 329 328 327 323 321 320 318 315 313 311 311 310 310 309 309 308 307
316 312 320 320 320 321 322 328 325 325 330 331 332 331 328 328 327 327 327 328 329 329 328 328 329 329 328 326 326 327 330 330 329 327 325 324 324 320 316 312 310 310 310 310 309 308 308 307 306
312 314 318 321 319 322 322 329 326 325 328 330 329 333 331 329 327 327 328 330 330 329 329 330 330 330 329 328 330 330 329 327 326 326 326 324 319 314 312 311 310 310 310 309 308 307 305 304 304
316 316 319 318 318 320 322 328 325 325 325 328 326 329 331 330 328 328 329 331 331 330 330 329 330 329 327 325 325 325 325 324 323 321 318 315 314 313 312 311 310 310 308 307 305 304 303 303 302
317 317 317 317 315 318 321 325 327 324 324 324 324 325 329 331 329 330 331 330 331 330 330 328 327 327 324 322 322 322 319 315 314 313 313 312 312 312 311 310 309 307 305 303 303 303 303 302 302
317 317 317 316 315 315 314 324 323 324 325 324 326 325 327 329 326 329 328 327 329 330 327 329 328 326 323 322 322 319 314 313 312 312 310 310 310 310 309 308 306 304 302 300 301 301 302 302 301
317 318 318 319 314 314 317 320 326 324 322 322 323 325 324 326 325 328 327 326 326 326 327 328 328 326 323 322 320 315 313 313 311 310 310 310 309 309 306 303 301 299 298 297 297 298 302 301 299
318 317 317 318 315 317 315 321 319 323 324 322 324 323 323 323 323 327 326 325 324 325 326 327 329 326 324 322 318 315 313 311 310 310 309 308 305 303 301 299 298 297 296 296 298 299 300 301 299
318 317 318 319 319 317 319 317 316 320 326 324 322 322 323 320 320 324 326 325 325 325 326 327 328 326 324 322 319 315 313 312 311 310 307 303 301 299 298 298 297 296 296 298 301 301 300 300 299
318 318 317 316 317 319 319 318 317 320 323 325 321 321 321 319 320 319 325 325 325 325 327 327 327 325 324 323 320 316 315 312 311 309 305 300 299 298 297 297 296 296 298 299 300 299 297 296 296
318 317 319 319 319 319 321 320 318 317 317 318 316 318 320 319 321 319 323 324 325 326 327 327 327 325 324 324 322 318 315 313 311 308 301 298 298 297 297 296 295 295 296 299 299 298 297 296 296
318 317 318 320 320 319 322 323 320 318 317 316 316 315 316 319 320 321 324 325 324 325 326 327 327 325 326 325 323 319 315 313 310 305 300 299 298 297 296 296 295 295 298 299 298 298 298 296 296
317 317 315 320 319 322 318 320 313 315 319 317 317 319 320 318 321 323 324 325 325 326 326 327 326 323 325 320 319 319 314 312 308 303 299 298 297 296 296 295 294 295 295 295 295 297 298 297 297
318 316 317 317 323 324 319 317 317 320 321 320 319 318 320 321 323 324 325 326 326 326 324 323 323 323 324 318 315 312 310 308 305 301 299 298 297 296 296 295 295 295 295 295 295 295 294 294 294
318 317 315 316 316 318 318 317 312 316 319 319 317 317 316 321 324 324 325 325 325 324 322 321 319 318 315 313 313 312 309 304 302 300 299 297 296 296 295 295 294 294 294 294 295 295 294 293 293
317 317 314 315 316 314 314 316 314 312 313 313 315 317 315 318 322 324 324 321 318 317 317 317 315 314 313 311 310 309 305 302 301 300 298 297 297 297 296 295 295 294 294 294 295 295 294 293 293

GFSSGP_925_thetae_024.txt.gz
Theta_e
313 311 311 312 312 306 310 310 310 313 341 340 342 343 344 343 342 341 338 339 339 339 338 333 327 326 327 326 322 317 314 311 311 309 310 313 314 320 322 323 325 325 326 325 322 321 323 324 323
311 310 313 305 307 309 306 309 314 323 334 333 329 340 345 347 341 340 339 340 339 339 338 332 329 328 328 326 322 317 313 312 309 310 313 314 316 318 320 322 325 325 325 325 318 318 321 321 322
312 317 311 306 304 308 308 310 332 331 330 329 329 334 341 344 340 340 339 340 338 338 338 333 334 329 328 326 320 317 312 312 312 312 318 315 318 319 316 319 324 326 326 322 316 315 315 317 318
314 311 301 306 308 307 309 308 319 331 330 327 328 338 340 339 340 339 341 340 339 339 337 334 332 328 329 324 319 315 317 310 313 314 318 323 323 319 315 319 320 322 325 320 316 315 314 314 317
310 303 306 305 305 306 313 330 332 333 331 331 331 341 340 338 337 338 338 339 338 338 336 334 328 328 328 323 318 318 311 311 313 320 321 324 321 315 314 315 318 318 317 318 317 316 315 315 314
309 302 305 306 307 310 330 329 332 332 331 331 337 337 339 337 336 336 337 336 337 336 335 333 330 330 327 320 318 313 316 312 321 323 323 321 316 314 314 315 314 317 319 319 319 317 316 315 315
310 306 308 308 311 318 331 327 331 331 329 330 333 340 338 337 334 334 333 331 331 331 330 332 330 325 320 318 316 316 311 318 318 320 317 314 314 314 315 315 315 317 319 319 319 319 318 316 314
306 306 311 308 315 326 329 328 327 328 329 327 329 338 339 334 331 330 329 329 328 329 328 330 328 320 322 322 321 315 313 316 318 314 313 313 313 315 315 315 316 317 318 319 318 318 316 314 313
305 307 308 309 322 324 327 328 326 329 334 332 334 333 334 331 329 326 324 324 323 322 323 321 319 318 320 320 316 314 317 316 313 313 314 314 314 315 315 316 317 318 319 319 319 316 314 312 311
309 308 310 309 314 325 326 326 329 332 334 334 336 335 332 331 329 328 324 324 324 323 321 321 320 318 317 315 318 313 311 313 314 314 314 315 315 315 316 317 318 320 321 321 317 314 312 311 309
309 310 309 310 316 325 325 327 327 331 333 332 337 335 333 331 329 329 324 323 323 322 323 321 319 320 320 320 318 310 312 315 315 316 320 320 316 316 318 322 322 320 318 315 313 311 311 310 309
312 310 311 311 320 325 326 326 327 326 329 331 332 331 331 330 329 329 325 324 321 321 322 322 321 320 321 326 320 313 316 316 318 323 325 324 323 322 321 322 318 316 313 312 312 311 310 309 308
310 311 311 310 322 324 324 324 324 331 331 330 330 330 330 329 329 328 326 324 323 322 320 320 322 325 328 324 318 313 317 318 321 323 325 325 325 324 318 317 315 314 313 313 311 309 308 308 308
312 312 313 318 322 324 324 323 327 331 329 328 329 328 328 325 325 327 327 324 325 325 322 321 324 327 329 324 318 315 319 323 325 327 326 325 323 322 319 316 315 314 312 310 309 309 309 308 307
315 315 317 321 322 325 322 324 328 331 329 330 330 329 328 325 326 326 327 325 324 326 326 323 322 328 329 323 318 318 323 327 328 327 326 324 322 319 317 316 314 312 311 310 309 309 308 308 306
313 313 321 319 321 322 322 328 327 331 331 332 331 330 327 326 326 326 326 324 323 324 324 324 327 328 328 324 319 324 328 329 328 327 326 323 319 317 317 315 312 310 310 309 309 308 307 306 305
310 314 319 321 319 323 321 329 324 328 332 331 332 330 327 326 326 326 326 324 323 323 324 325 326 328 326 323 321 325 329 329 328 327 326 322 320 318 316 312 310 310 309 308 308 307 305 303 303
316 316 317 320 318 321 323 328 324 327 330 331 329 331 329 328 327 326 326 326 327 327 326 326 328 328 327 326 327 326 328 328 328 326 324 324 320 315 313 311 310 309 309 308 305 303 303 302 302
316 315 316 317 315 320 321 327 324 325 325 326 326 329 331 330 328 326 327 326 329 330 329 328 329 328 329 327 327 327 328 326 325 324 322 319 315 313 311 310 309 308 306 303 303 302 302 301 301
316 317 316 316 313 315 318 325 325 323 326 325 326 328 329 330 327 327 327 328 330 330 330 328 329 330 329 327 327 326 324 322 320 317 314 313 312 311 310 309 307 303 301 299 299 299 301 301 301
317 318 317 318 314 314 318 322 328 324 323 322 323 325 326 328 328 327 328 327 329 330 330 329 328 328 326 325 324 322 319 315 313 312 311 311 310 309 308 305 301 298 297 296 296 297 299 300 298
318 316 317 317 313 316 314 316 318 323 324 322 323 322 324 324 326 326 328 326 326 328 329 328 327 326 325 324 322 320 316 312 312 311 310 309 308 306 303 301 298 297 296 296 297 299 300 301 299
317 316 317 317 317 317 318 316 314 319 325 325 322 322 323 322 323 324 327 327 326 328 328 328 327 326 325 323 321 319 314 313 312 311 309 307 304 301 300 298 297 296 295 296 298 300 300 299 298
316 317 315 315 316 318 317 316 316 318 324 326 324 320 321 320 319 322 326 326 324 326 327 327 326 326 325 323 321 319 316 313 311 309 307 303 301 299 298 297 296 295 297 298 299 299 298 297 296
316 316 319 318 319 319 319 319 317 315 315 319 321 321 319 320 318 318 322 324 323 324 325 326 326 325 324 323 321 319 316 313 312 310 307 301 299 298 297 296 295 297 298 297 299 298 297 297 296
316 316 317 320 319 318 320 320 317 316 315 314 313 314 314 317 319 318 321 324 324 323 324 325 325 325 325 324 323 320 315 314 312 311 309 304 300 299 297 296 296 298 295 294 297 298 298 297 296
316 316 314 318 317 320 316 316 312 313 317 317 316 315 313 316 316 318 318 322 324 324 324 325 325 325 325 325 323 320 318 315 314 311 308 303 300 298 297 295 298 295 294 294 295 296 298 297 297
315 314 317 315 321 322 317 316 314 314 318 319 319 316 317 318 317 318 318 322 323 324 324 325 325 325 325 325 323 321 319 317 313 311 306 300 298 298 296 297 295 294 295 294 294 295 295 295 294
317 316 314 315 314 318 317 315 312 314 316 315 314 315 315 317 319 319 320 322 323 324 324 325 325 324 323 322 323 319 315 313 311 309 302 299 298 297 296 295 294 294 294 294 294 295 294 294 293
315 316 314 316 316 313 312 314 311 310 310 310 311 312 315 313 319 320 321 323 324 324 323 323 321 321 322 322 319 313 311 310 306 303 301 299 298 296 296 295 295 294 294 294 295 294 294 294 293

GFSSGP_925_thetae_030.txt.gz
Theta_e
317 315 314 317 318 316 318 316 317 320 324 341 344 336 330 342 340 343 342 342 342 338 334 335 338 340 338 336 332 326 321 315 315 318 319 320 322 322 325 325 327 331 333 333 332 333 328 316 315
314 312 315 317 316 317 317 317 320 329 333 336 338 345 344 345 341 341 342 342 341 339 336 333 332 332 331 329 325 322 319 320 325 321 321 322 322 322 323 323 327 332 333 333 333 330 317 316 316
314 315 318 317 315 316 317 319 317 331 335 335 340 339 336 342 339 341 342 342 341 339 336 335 330 327 326 323 320 321 324 327 326 326 324 324 322 321 321 323 325 328 329 333 330 319 316 317 314
315 318 316 315 315 316 315 315 319 327 330 333 339 343 337 330 339 342 342 340 340 338 337 334 330 327 324 321 325 326 325 326 326 325 325 323 321 322 321 322 321 322 325 322 319 316 317 316 313
314 317 316 315 315 314 314 319 334 334 329 335 338 342 341 337 339 339 341 340 339 338 337 333 331 329 327 328 326 327 325 320 326 327 325 321 322 323 323 321 317 315 315 316 317 316 316 314 312
317 316 316 315 315 318 320 328 335 333 335 338 340 342 341 336 336 337 340 339 338 338 336 334 331 330 330 330 327 324 323 322 324 322 323 322 324 322 319 318 316 315 315 315 316 316 315 313 311
317 316 316 319 322 326 333 333 334 334 335 339 337 341 340 334 330 334 337 337 336 335 334 332 330 328 327 324 321 322 325 323 322 320 322 322 320 320 318 317 317 316 315 315 315 315 313 312 311
317 317 317 320 320 323 328 331 332 332 335 335 336 340 342 331 328 330 331 332 332 331 330 329 327 323 316 321 321 323 322 325 320 319 319 317 317 317 319 319 319 318 316 316 315 314 313 312 311
315 317 319 318 318 319 325 331 333 332 334 336 337 339 333 327 327 328 327 326 324 324 325 324 321 322 318 318 318 324 326 322 321 317 316 318 321 320 321 322 318 319 319 317 314 314 313 311 310
317 317 317 317 317 318 322 329 333 335 336 338 338 331 328 328 329 329 328 325 322 321 319 319 318 316 317 316 318 328 327 326 323 318 321 324 323 322 322 322 319 318 317 314 313 312 311 313 313
318 318 318 318 317 317 323 327 331 334 334 335 337 333 329 328 328 327 326 324 322 320 318 320 321 320 321 321 323 325 323 319 318 317 320 324 322 322 324 323 321 318 315 313 312 313 314 313 313
317 318 317 318 318 322 328 329 332 332 335 335 334 330 329 330 329 326 325 322 320 320 318 317 316 312 311 311 313 316 316 318 321 316 322 324 322 323 323 322 320 318 317 316 314 315 314 312 311
318 318 318 318 318 327 328 330 332 336 334 335 332 331 330 329 328 327 325 324 321 319 317 314 312 310 311 313 314 318 321 320 319 321 322 322 321 323 322 320 318 317 316 316 316 314 313 312 310
319 319 320 320 324 328 329 330 330 334 334 334 333 331 330 328 328 326 325 324 322 319 318 317 316 315 316 318 320 319 320 319 321 324 325 325 322 322 320 319 318 316 316 316 314 313 312 311 310
319 321 322 322 327 328 327 330 334 334 333 333 332 332 330 330 329 328 325 324 323 322 319 319 321 322 320 323 324 319 321 321 323 327 328 327 323 321 320 319 318 317 316 314 313 312 311 310 308
320 318 322 324 326 327 327 330 335 333 333 332 331 331 331 331 330 328 324 322 323 324 323 323 324 324 324 325 324 320 321 323 326 328 328 326 323 321 320 319 318 316 314 313 313 313 311 309 307
320 320 322 323 325 328 328 330 333 333 333 330 330 330 329 328 328 328 329 323 323 323 323 323 324 325 327 329 325 322 323 326 329 329 328 325 322 321 320 319 317 315 314 314 313 312 309 307 306
320 320 320 323 325 326 328 329 332 334 334 331 330 329 328 327 327 328 328 329 325 325 325 325 326 328 330 329 324 321 325 328 330 329 327 324 322 319 319 318 316 314 313 313 312 309 306 306 305
321 320 320 321 322 325 325 326 331 334 335 335 333 330 329 328 326 326 328 328 328 328 326 326 326 327 329 328 324 322 326 328 329 329 327 324 321 318 318 317 315 313 313 312 310 307 306 305 304
321 320 321 321 320 321 323 323 329 334 335 335 334 335 332 330 328 327 327 326 326 327 328 328 328 328 329 326 323 323 325 327 329 327 326 323 321 319 318 316 314 312 312 310 307 305 304 304 304
321 321 321 321 320 320 322 322 327 330 333 333 333 333 333 330 330 329 328 327 326 326 327 328 328 329 328 326 324 326 327 325 326 324 323 323 320 318 316 315 313 312 310 308 306 305 304 306 305
321 321 320 321 321 321 320 320 323 326 331 333 332 333 333 331 330 330 331 330 329 328 327 328 328 328 329 328 326 325 326 326 325 323 323 321 318 317 314 313 312 310 306 304 303 303 305 305 306
320 320 321 322 321 322 321 320 322 324 328 329 331 332 332 331 331 331 331 331 331 330 329 329 329 329 329 329 327 326 327 327 327 323 321 318 315 313 312 310 308 306 304 303 303 304 304 305 305
320 321 322 323 323 323 322 321 320 321 322 322 326 328 330 331 331 331 330 331 331 331 330 330 330 330 329 329 328 328 327 328 325 321 316 314 309 309 308 307 306 305 303 303 304 302 304 304 303
321 321 323 323 324 324 322 323 321 321 321 322 323 324 328 330 330 331 332 331 331 331 331 331 331 330 329 329 329 329 328 327 323 319 315 311 310 307 307 305 305 302 301 302 302 302 302 301 302
322 321 322 324 324 321 322 322 321 321 321 322 322 322 322 326 329 331 331 331 331 332 332 332 331 331 330 329 328 327 326 324 321 318 313 311 309 307 305 304 303 301 299 301 302 303 301 302 301
322 322 321 324 325 323 321 321 320 320 319 323 324 324 324 324 323 326 328 330 330 331 332 332 332 331 331 330 329 328 325 323 320 317 315 313 309 307 305 305 302 301 300 301 303 301 302 300 301
322 321 323 324 324 323 321 320 319 318 318 319 320 322 323 324 324 323 324 326 327 329 331 331 332 331 331 331 329 328 326 323 319 317 314 311 309 307 305 303 301 301 297 300 302 301 300 300 301
322 322 321 323 323 322 321 321 319 319 319 319 320 320 322 324 325 326 324 324 324 327 329 330 330 330 330 331 330 329 328 322 318 316 314 312 311 308 303 302 300 300 297 302 300 299 299 299 299
321 321 323 324 323 323 325 321 319 320 320 320 321 318 320 323 324 326 327 325 325 326 327 328 328 329 329 330 329 329 325 322 320 319 316 313 311 305 302 301 301 297 301 300 298 297 297 298 298

GFSSGP_925_thetae_033.txt.gz
Theta_e
317 319 317 317 318 318 318 319 319 320 322 331 336 335 327 337 343 344 345 345 341 339 340 343 343 342 341 338 334 331 326 316 312 318 320 320 321 324 326 328 331 333 334 334 330 328 324 315 314
319 316 315 318 317 318 319 319 318 320 328 335 337 343 338 345 342 342 343 344 338 338 339 343 342 341 339 336 333 327 320 316 318 321 321 322 324 325 328 332 334 333 334 333 329 327 318 314 314
315 315 319 320 319 317 319 320 321 321 332 334 336 339 336 337 330 337 343 344 337 337 337 341 340 340 338 335 329 324 320 318 322 323 323 325 325 326 331 333 334 333 334 333 328 321 314 313 312
317 319 318 316 317 317 318 318 319 324 327 331 335 342 335 327 328 327 334 341 338 335 336 337 339 338 334 330 326 324 322 322 325 326 326 327 325 324 328 330 332 332 333 329 321 316 313 312 310
315 318 318 319 317 317 317 317 323 327 328 331 333 340 344 335 331 329 325 340 338 334 338 334 334 332 329 326 324 324 322 325 329 327 327 325 323 322 322 324 325 325 324 317 316 315 312 311 311
319 317 318 318 317 317 319 323 328 331 331 334 335 341 343 336 337 336 340 339 338 338 337 333 331 330 328 327 325 324 325 328 329 327 328 325 323 322 318 316 316 317 317 316 316 314 312 312 311
319 319 319 319 321 327 329 331 331 333 334 335 337 339 341 335 330 334 336 338 337 337 335 334 331 330 331 328 326 326 327 328 329 330 326 323 321 319 316 314 315 316 316 316 315 313 312 311 311
318 319 320 321 321 326 326 329 331 331 335 336 337 340 343 333 330 331 330 334 333 334 333 332 331 331 329 328 329 328 326 328 328 328 324 322 319 317 316 315 315 315 316 315 314 313 312 311 311
318 319 321 320 319 321 322 327 333 333 333 335 340 340 334 330 328 328 326 327 327 328 330 329 327 326 325 323 324 326 327 326 325 324 320 320 319 321 324 322 316 316 316 316 314 313 312 311 310
318 319 320 320 320 320 324 327 331 332 336 338 335 331 330 330 332 331 326 323 321 322 324 325 321 324 322 322 322 320 316 314 324 321 322 322 320 324 323 319 319 318 317 315 313 312 314 315 314
320 320 320 320 319 321 323 327 329 332 333 326 337 333 330 331 331 328 327 324 321 320 320 320 319 318 316 314 313 312 317 324 323 324 324 325 323 322 321 319 319 317 315 313 313 315 317 317 314
319 320 320 320 320 324 328 325 323 334 333 330 333 331 330 331 331 327 324 322 320 321 320 318 316 314 313 313 315 318 321 323 323 323 325 321 323 324 324 323 322 319 319 318 319 318 317 315 313
319 320 320 321 320 327 328 330 331 337 335 335 332 331 332 331 330 326 323 321 319 318 317 318 317 317 317 319 320 319 317 318 319 316 323 319 323 324 324 324 323 321 321 319 319 318 315 314 313
321 320 321 320 323 327 329 331 332 336 335 334 334 333 330 329 327 327 324 321 319 317 314 313 312 313 314 314 315 317 319 316 319 320 321 323 322 324 324 323 322 321 320 320 318 316 315 313 312
320 321 321 322 324 325 327 328 333 336 335 334 333 331 327 329 326 326 326 322 318 317 316 312 311 311 312 313 313 314 316 318 320 320 323 325 323 325 324 323 322 321 320 319 317 315 314 313 310
321 321 323 326 325 326 327 331 336 335 333 332 332 329 330 330 328 325 325 324 322 318 316 313 313 317 317 316 319 321 320 321 320 324 328 328 327 326 325 323 322 321 320 318 316 315 314 312 310
321 321 326 327 323 327 329 328 334 333 331 330 330 330 329 330 329 325 325 324 324 320 319 320 321 320 321 322 324 321 320 323 323 325 327 329 327 325 325 324 322 320 319 317 316 315 313 311 309
321 320 322 325 324 325 327 327 333 333 332 331 329 327 327 327 327 327 324 324 324 324 323 324 325 324 324 326 326 322 320 322 323 329 329 329 327 325 325 323 321 320 319 317 315 314 310 310 309
322 321 322 323 325 323 326 327 329 333 332 331 330 330 327 326 325 327 328 325 325 325 324 324 324 324 326 326 325 321 320 323 327 329 330 329 326 325 324 323 321 320 318 316 315 312 310 308 307
320 320 321 322 321 321 322 325 327 331 332 332 331 330 330 326 326 326 327 327 326 326 326 325 325 326 326 325 324 321 321 322 326 329 329 328 327 324 324 323 321 319 317 316 314 310 309 309 308
320 321 322 321 322 321 321 323 323 326 330 332 331 330 328 328 327 327 326 328 328 327 327 327 327 327 327 326 325 321 321 324 326 328 329 329 327 325 323 322 321 319 317 315 313 310 309 308 309
320 320 321 321 321 322 322 324 323 324 328 331 332 330 329 328 328 328 327 326 327 327 328 328 327 327 327 327 325 322 324 325 327 328 328 328 327 325 323 322 321 318 316 313 312 309 308 308 309
321 322 321 322 322 323 321 320 323 321 324 327 330 331 330 329 328 328 328 327 327 327 327 328 328 328 328 328 327 324 326 326 326 327 328 327 327 324 323 321 319 317 315 311 309 307 307 308 309
321 322 322 322 323 325 322 322 323 321 322 323 325 328 330 329 329 328 327 328 329 328 328 328 328 327 328 328 329 328 328 327 327 329 328 327 324 321 320 318 316 313 310 308 307 306 306 307 307
321 322 324 325 327 326 322 322 321 322 321 321 321 324 327 329 329 328 328 329 329 331 331 330 329 329 328 329 329 329 329 328 328 329 327 324 321 316 314 313 310 309 308 306 305 304 303 305 305
321 321 324 330 332 328 323 322 321 321 322 321 321 321 322 327 329 329 328 328 328 329 332 332 331 330 329 330 330 330 330 330 330 329 326 321 316 314 317 318 309 307 306 305 304 301 303 304 304
322 324 321 323 324 326 325 322 321 321 320 320 322 323 324 324 326 329 329 329 329 329 331 333 333 332 331 330 331 331 330 330 330 329 326 320 317 316 316 310 308 305 304 303 301 302 302 304 304
321 323 324 324 330 328 322 322 321 320 319 319 319 322 322 324 326 325 327 328 329 330 331 334 334 333 332 332 332 332 331 330 329 326 323 317 314 312 310 308 305 304 303 300 301 301 304 303 302
322 324 323 323 324 327 325 323 321 320 320 320 320 319 320 322 326 327 326 326 327 330 331 333 334 335 334 333 333 333 331 330 328 325 320 317 314 312 310 308 306 304 302 300 299 301 302 302 302
321 322 323 328 326 327 329 325 320 320 320 321 320 320 321 322 324 327 328 326 326 327 329 331 333 333 333 333 333 332 330 329 326 322 319 317 315 315 312 309 305 302 301 301 301 302 300 300 300

GFSSGP_925_thetae_039.txt.gz
Theta_e
314 316 321 320 316 311 313 314 314 317 328 331 333 329 335 341 347 341 338 333 328 332 334 340 339 339 334 330 327 323 317 314 315 317 322 329 329 329 335 330 326 328 328 326 324 323 323 320 321
315 317 320 313 312 313 315 315 316 319 330 328 329 327 335 339 334 339 336 334 329 328 331 340 338 339 333 329 326 321 314 314 317 319 324 327 327 332 334 326 327 328 327 325 321 314 318 320 320
314 316 312 311 312 315 313 315 317 315 319 324 336 335 338 336 332 331 329 338 334 334 340 340 339 339 334 330 325 318 314 315 317 321 325 326 326 332 331 325 327 327 326 323 317 318 319 320 319
319 314 311 313 313 313 315 318 322 315 320 328 332 331 330 330 331 330 330 336 339 339 338 340 339 337 333 330 325 317 318 319 322 324 326 330 330 330 329 327 327 326 324 317 311 314 317 317 316
318 310 312 315 316 316 323 323 323 329 328 328 333 335 331 335 334 334 333 331 337 337 336 338 339 337 332 329 327 321 320 321 324 327 331 332 330 331 330 327 324 319 313 312 312 314 313 314 316
313 311 313 315 317 323 322 321 321 330 331 327 327 332 337 332 333 337 336 333 331 329 330 328 339 335 331 326 322 327 328 326 328 330 332 332 331 332 329 323 319 314 312 313 313 314 314 313 316
313 312 313 314 316 323 325 322 326 332 331 331 326 329 328 329 331 334 333 331 333 334 335 335 336 333 331 328 320 324 328 327 327 331 331 331 331 331 326 319 315 314 312 313 313 314 313 313 314
313 311 312 313 319 326 325 324 325 331 331 329 324 334 332 330 329 333 331 328 332 333 332 333 333 333 330 327 327 330 329 326 325 325 328 329 328 326 321 317 315 315 313 313 313 314 312 313 313
313 311 312 316 319 317 321 323 323 327 326 328 330 332 331 329 329 329 329 330 327 330 332 329 330 331 328 324 328 331 328 326 324 322 320 320 322 320 317 316 316 315 314 314 314 313 312 312 312
311 311 313 317 317 318 318 325 329 327 329 327 332 331 330 329 329 327 327 328 329 330 330 329 325 323 321 321 324 331 329 326 323 319 315 316 316 317 316 316 316 315 315 315 313 313 312 314 313
313 313 314 318 319 319 322 326 330 326 325 325 330 330 330 329 328 325 324 324 324 326 328 327 325 323 322 323 321 324 325 322 320 319 317 320 320 316 316 316 316 316 315 314 313 314 315 314 313
315 315 316 317 318 320 324 326 332 326 327 323 329 331 330 329 327 325 323 322 320 321 323 327 322 319 316 317 320 323 320 321 323 321 322 323 322 318 316 316 317 316 315 315 315 317 314 312 310
316 316 316 317 317 321 327 332 335 335 331 329 329 331 331 328 326 324 322 321 319 317 318 321 322 322 323 321 322 320 320 323 323 323 322 323 321 319 319 319 318 317 316 316 317 318 313 313 311
318 318 318 317 316 324 326 328 332 335 331 331 331 330 328 326 323 322 319 318 319 318 318 317 317 318 321 320 317 317 318 320 319 321 318 322 322 320 321 322 322 319 319 318 319 316 315 313 311
319 318 317 317 317 324 320 323 329 332 332 332 331 329 327 324 323 321 319 317 317 317 317 317 315 317 318 317 317 314 313 315 317 319 318 321 322 324 325 325 323 322 321 320 319 316 315 313 312
318 317 317 317 323 323 322 327 324 324 332 329 328 326 327 325 323 321 319 317 316 317 317 316 315 315 316 316 314 314 312 314 317 317 319 321 323 324 324 324 323 322 321 321 319 315 314 312 311
317 316 316 317 322 326 325 327 325 328 333 328 327 322 322 326 322 320 319 317 316 316 315 315 315 314 314 315 316 317 317 315 316 314 318 320 322 322 323 323 323 322 321 319 318 315 314 313 311
318 317 320 322 324 327 328 328 325 326 333 330 325 325 327 327 323 321 319 317 316 315 315 314 315 317 317 318 318 316 317 314 314 318 319 320 322 325 324 323 324 322 321 320 318 316 315 313 311
318 318 319 321 324 326 329 328 322 323 330 331 326 326 329 325 324 321 319 319 316 316 316 316 316 315 315 314 314 314 315 317 318 320 322 324 325 324 326 324 325 323 322 320 318 316 315 311 311
320 319 317 318 323 324 328 327 323 325 330 326 325 326 328 325 324 323 322 318 317 314 314 315 315 314 317 314 314 314 315 320 318 319 320 323 326 325 325 325 325 323 322 320 318 317 313 312 309
320 319 317 319 321 321 321 333 332 330 327 329 324 322 325 326 325 324 323 319 317 316 315 314 314 318 316 316 314 315 321 324 319 321 320 323 325 326 324 326 325 323 322 320 319 316 315 312 310
319 318 318 320 321 321 319 321 334 329 331 329 326 324 323 326 325 324 325 321 319 319 318 318 318 322 320 318 321 322 324 323 320 320 322 325 326 324 323 326 325 324 322 320 320 316 314 311 309
319 319 322 322 321 320 320 321 321 329 331 329 327 327 324 325 325 324 324 325 322 320 320 322 323 322 322 322 323 324 323 324 322 320 321 324 325 325 327 325 324 324 321 321 319 315 312 310 309
318 322 322 322 321 321 320 323 322 329 329 329 328 327 326 323 324 325 325 325 325 324 322 323 325 325 323 323 324 326 325 324 321 321 326 326 327 327 327 326 324 323 322 320 317 316 314 313 312
318 320 322 322 322 321 327 327 323 319 321 323 328 327 326 325 323 325 325 326 325 325 325 324 324 324 324 325 325 326 326 326 322 320 321 328 328 327 326 327 325 324 322 319 318 316 314 312 309
318 320 323 324 324 327 326 326 325 322 321 321 327 327 325 324 324 323 324 325 327 326 326 326 326 326 325 325 326 326 326 327 324 324 326 327 327 326 327 326 326 322 321 320 319 318 314 310 308
319 320 319 322 329 327 328 327 325 322 320 320 319 322 320 320 322 323 324 324 325 327 327 328 328 327 327 327 327 327 327 326 327 324 327 326 327 323 325 326 324 322 319 318 317 316 313 308 307
318 319 322 323 329 329 329 329 327 323 321 319 317 319 320 321 323 324 323 324 325 325 327 327 327 328 328 327 328 328 329 328 327 329 327 325 323 325 325 322 320 318 316 316 316 313 309 306 304
319 319 322 324 326 327 325 323 321 323 321 318 315 317 318 319 319 321 322 323 325 326 326 326 327 327 328 328 327 328 329 330 329 329 327 324 324 326 323 319 318 316 315 315 311 308 306 304 304
318 319 320 325 327 327 326 324 321 320 320 319 318 316 316 320 321 320 320 322 323 326 327 327 328 328 324 321 329 329 329 328 328 328 327 325 325 322 321 320 318 315 313 311 308 306 304 303 303

GFSSGP_925_thetae_042.txt.gz
Theta_e
314 315 319 319 314 309 312 312 314 314 319 330 330 332 340 338 341 338 335 335 336 339 340 334 334 338 330 325 322 318 319 319 319 320 329 334 331 324 324 324 324 324 325 329 330 330 330 329 329
314 314 319 311 310 311 311 312 313 314 326 327 332 334 337 337 333 334 334 332 335 337 335 329 335 338 329 326 322 319 318 320 323 325 329 334 327 323 322 321 319 320 323 327 328 328 324 319 318
314 316 311 310 308 311 312 312 319 324 328 331 336 332 335 334 331 331 329 336 328 329 331 333 329 334 334 331 320 324 328 330 329 328 334 334 326 322 320 318 318 319 322 326 326 320 316 316 319
318 312 309 311 312 311 313 313 321 329 328 326 329 331 330 335 333 335 328 336 329 328 329 333 326 334 332 327 327 329 331 328 329 331 333 333 322 322 321 318 317 317 322 321 319 317 315 319 320
317 307 309 312 312 314 315 321 327 330 329 327 330 333 334 334 333 335 332 337 339 338 338 338 336 333 329 327 325 328 329 329 331 332 333 330 324 323 322 318 315 313 312 314 315 315 315 321 321
313 308 312 313 314 314 320 320 328 329 328 327 327 331 335 332 333 336 334 332 337 337 337 337 334 334 331 326 326 323 329 330 331 331 333 328 324 325 321 315 313 313 314 314 313 313 314 317 321
312 310 312 312 312 318 323 321 331 331 331 330 326 329 326 329 330 334 331 330 332 332 332 332 331 326 332 323 329 324 328 329 331 330 331 330 325 323 317 313 312 314 314 315 312 311 314 313 313
309 310 313 311 313 318 323 323 328 328 330 328 324 331 331 330 330 331 332 332 332 333 334 331 333 331 322 318 330 324 326 331 333 330 330 329 324 320 315 313 313 314 314 314 312 313 313 313 312
309 310 309 311 315 317 322 323 325 325 326 330 330 333 330 329 329 331 329 331 332 333 331 332 330 328 324 324 322 325 327 330 331 330 330 329 324 318 315 315 313 313 315 313 311 312 312 312 311
310 308 311 311 316 318 321 327 328 328 327 332 332 331 330 330 329 329 329 329 329 330 329 325 323 327 326 324 328 327 327 330 331 330 329 326 320 316 316 316 316 316 314 313 312 312 312 312 311
311 312 314 314 316 317 329 330 326 322 324 326 330 332 331 329 328 327 326 328 329 328 327 326 324 322 320 325 327 326 325 324 324 324 322 320 317 316 316 315 315 315 314 313 313 314 314 312 311
314 314 313 313 317 319 325 328 331 327 326 325 327 331 329 328 327 325 323 322 324 325 325 324 322 322 321 323 326 326 323 319 316 317 316 316 316 316 317 316 316 315 314 314 316 316 314 312 310
316 314 314 316 317 326 330 333 336 334 329 328 329 331 330 328 326 324 322 319 321 323 324 324 323 322 321 322 327 323 321 319 316 319 318 317 316 316 316 317 316 315 314 316 317 316 313 311 309
317 317 316 316 316 329 334 335 333 333 329 328 331 331 328 326 324 322 321 319 319 319 322 323 322 322 324 323 324 322 323 322 320 322 322 321 319 317 317 318 317 316 315 316 318 316 313 311 309
317 317 315 316 316 323 322 325 332 333 330 331 330 328 325 324 323 322 320 318 319 318 318 319 318 318 317 320 321 322 323 324 323 323 323 321 319 318 318 319 318 317 317 318 318 315 314 313 310
316 315 316 315 322 322 320 324 326 332 333 330 327 328 326 323 322 321 319 318 318 318 317 318 317 319 320 320 321 321 320 320 319 321 322 322 323 322 322 324 322 320 321 319 319 316 315 314 311
315 316 316 316 317 324 323 325 322 328 333 330 327 326 325 323 321 320 319 317 317 318 317 317 317 317 319 320 319 318 316 316 315 315 316 320 322 324 323 324 323 323 321 320 320 318 314 312 311
316 316 315 315 323 325 326 324 324 326 331 328 325 320 326 324 321 320 318 317 317 317 317 316 317 318 318 318 317 315 314 315 315 315 316 319 321 323 322 323 323 322 321 320 318 315 314 313 312
315 316 315 315 320 326 326 325 323 327 331 328 324 322 322 325 321 319 318 316 316 317 316 316 316 316 316 316 316 316 315 313 314 315 314 315 319 321 323 323 323 324 322 320 319 317 315 314 312
316 317 317 315 321 322 325 326 323 326 329 330 325 324 325 325 322 319 318 316 315 316 315 315 315 315 315 316 316 316 315 314 314 315 315 318 320 321 325 325 325 324 322 321 320 319 315 313 311
317 318 318 316 320 319 325 327 326 324 327 326 328 324 326 325 324 320 318 317 315 315 314 315 315 315 314 316 316 315 315 316 315 315 316 319 320 324 325 325 325 324 324 321 321 319 316 313 309
319 319 317 317 319 319 317 320 330 326 326 326 327 324 327 325 324 321 319 317 315 315 315 315 315 315 316 315 314 313 315 315 317 319 319 318 320 322 324 325 325 325 324 321 321 319 317 316 311
320 320 318 320 320 319 319 318 317 327 328 326 326 323 324 324 323 322 321 318 317 314 314 315 315 314 314 316 314 314 314 316 318 321 320 318 319 319 324 326 324 325 324 323 321 320 318 315 312
318 318 320 319 318 321 319 319 320 328 327 326 326 323 324 325 324 323 322 320 317 316 314 314 313 313 317 316 316 316 316 319 322 323 321 320 318 321 324 325 323 324 325 323 322 320 317 314 314
317 318 321 321 322 322 321 325 322 321 323 326 327 325 323 325 324 324 323 322 319 317 316 315 315 316 318 320 318 317 319 320 322 322 322 321 321 321 323 325 324 325 324 324 322 320 316 314 315
318 317 319 323 324 322 325 324 322 321 321 322 325 325 325 322 324 324 323 323 322 318 318 318 318 319 319 320 320 319 320 322 322 322 321 323 322 322 324 325 326 325 324 323 321 320 316 315 315
319 318 317 319 324 325 323 323 321 321 320 318 320 325 326 324 322 324 323 323 324 323 320 320 321 322 321 321 320 321 322 322 323 324 322 321 321 320 326 326 325 325 324 323 320 318 316 315 314
317 317 319 319 323 327 326 325 322 322 321 319 318 323 323 322 323 322 323 324 324 324 324 323 322 322 323 323 324 323 323 323 324 324 324 322 322 325 326 325 323 322 324 320 315 315 314 314 313
317 317 320 319 322 323 325 322 320 321 321 322 319 316 320 319 319 321 321 323 324 325 325 324 324 324 324 324 324 324 324 324 325 325 324 325 325 324 325 323 323 321 321 316 316 315 315 313 310
316 318 319 321 325 323 320 323 319 319 318 319 317 315 315 316 316 319 320 321 323 323 324 326 325 326 326 325 326 326 326 327 326 326 326 325 324 324 318 321 322 320 317 315 314 314 312 310 306

GFSSGP_925_thetae_048.txt.gz
Theta_e
314 315 319 313 310 308 313 312 310 312 317 331 334 336 336 335 335 329 334 336 340 339 332 335 332 331 327 323 331 330 336 335 336 335 333 333 330 330 330 332 332 331 331 331 330 330 329 328 327
313 316 315 305 308 310 310 309 311 321 327 326 331 334 334 336 333 334 333 335 342 339 336 335 332 331 329 328 332 328 333 336 333 332 332 330 330 331 333 332 331 331 331 331 331 332 330 327 326
314 313 308 306 305 310 310 310 311 323 325 330 333 330 333 333 330 331 331 333 340 338 334 330 330 330 327 332 332 330 329 327 330 331 331 331 331 332 332 331 330 330 331 331 331 331 329 322 320
316 309 305 310 312 310 311 311 310 324 324 324 326 328 330 331 330 331 329 333 339 339 334 331 330 328 326 326 329 332 333 333 331 332 330 330 331 332 331 330 330 329 327 326 326 327 324 321 316
312 304 307 310 311 310 309 310 318 327 327 325 326 329 330 333 332 333 331 334 334 338 336 335 330 328 326 324 326 327 332 333 331 331 330 330 330 331 331 330 328 324 322 324 327 324 323 317 314
308 305 311 311 311 312 310 315 325 328 327 325 325 329 334 331 331 332 333 332 333 334 335 333 330 328 327 326 324 320 328 334 323 329 330 330 329 330 330 327 321 316 318 319 323 323 319 314 310
309 308 311 312 312 311 315 320 327 328 329 328 325 328 328 328 329 330 332 332 334 331 332 334 331 329 328 327 325 318 326 331 329 329 329 328 328 328 327 321 315 317 322 321 322 320 316 314 312
306 307 312 310 312 311 315 322 326 327 325 327 323 327 328 328 328 330 330 331 333 333 333 329 331 331 328 325 322 318 324 324 326 328 328 327 323 324 318 313 314 319 321 321 321 319 318 315 314
305 308 310 312 310 312 319 323 324 324 327 329 329 332 328 327 330 330 330 331 332 332 332 331 332 330 327 322 317 324 326 327 326 328 327 321 318 314 312 312 313 313 315 317 319 319 319 316 315
308 308 310 309 309 312 317 321 325 328 326 329 329 329 328 328 330 330 330 331 329 330 331 331 330 327 325 321 319 320 318 322 327 327 323 317 313 314 312 312 312 312 312 312 313 316 317 317 315
307 311 310 311 309 309 314 326 326 325 324 323 327 328 329 329 328 328 329 329 327 327 329 330 329 327 326 325 318 321 325 325 324 323 320 315 313 314 313 311 311 312 312 312 313 315 315 315 314
312 309 310 311 312 314 324 324 326 320 324 321 324 326 327 328 328 327 326 327 326 325 325 323 325 324 322 323 323 318 319 319 322 322 318 313 313 314 313 311 311 311 312 312 311 311 311 313 314
311 312 314 312 312 314 325 328 329 328 326 325 326 327 326 327 326 325 324 326 326 325 324 323 320 319 319 320 323 323 323 322 321 321 317 314 313 314 314 313 312 312 313 314 312 311 310 311 313
314 314 313 313 314 329 328 331 331 328 326 325 328 328 325 325 324 323 322 322 325 325 325 324 322 321 319 319 320 320 319 319 316 322 318 315 314 315 314 313 313 313 315 315 314 313 311 310 311
315 315 313 313 314 326 327 326 330 328 326 327 328 327 327 327 324 323 322 321 322 324 324 324 323 321 320 320 320 321 321 321 321 323 319 316 315 315 315 314 314 314 316 316 315 312 309 308 309
314 313 314 313 318 320 321 321 319 327 328 328 328 327 325 325 322 322 321 321 321 321 322 323 322 322 321 320 320 321 322 317 321 320 320 317 316 315 315 315 314 314 317 317 317 312 310 308 307
311 312 313 314 314 319 319 321 322 327 330 329 326 326 324 323 320 321 320 320 320 321 321 321 322 321 323 321 324 323 322 322 320 322 320 317 316 316 316 316 315 315 315 317 317 313 311 309 308
313 313 312 314 314 319 320 320 319 329 330 330 325 323 323 322 321 320 320 319 319 320 321 321 321 321 322 321 322 322 320 321 319 320 318 317 317 316 317 317 316 316 314 315 317 315 313 312 310
311 314 314 311 312 315 313 314 315 327 330 329 326 323 322 322 319 319 319 319 319 319 319 320 320 320 319 319 320 322 321 321 317 317 320 318 317 317 318 319 320 317 316 317 318 317 315 314 312
313 313 313 312 313 313 313 317 317 322 329 330 327 324 321 321 320 320 318 318 318 318 318 318 319 319 320 319 319 320 322 321 321 321 322 321 321 322 322 322 322 323 321 321 321 319 317 314 312
313 313 313 314 313 315 320 319 322 321 323 328 326 323 321 320 320 320 318 316 317 317 317 318 318 319 320 319 320 319 319 320 319 316 316 318 321 320 319 320 322 322 323 322 322 320 318 317 312
314 313 314 315 316 318 318 320 316 317 322 325 326 326 322 318 321 319 318 316 315 315 317 317 317 318 318 318 318 318 318 319 318 316 315 314 315 316 316 316 319 321 321 322 322 321 319 317 314
315 314 314 316 315 315 316 316 315 323 322 322 321 324 325 320 320 320 318 317 315 314 315 317 317 317 317 317 317 317 317 317 317 316 315 314 314 314 314 314 316 319 322 322 323 323 320 316 314
315 316 316 316 315 318 317 315 315 317 321 320 320 320 322 322 320 321 319 317 314 314 315 315 316 316 317 317 316 316 315 315 316 316 316 314 313 313 313 313 314 317 319 323 324 324 323 320 316
315 315 318 318 319 321 316 315 317 315 314 318 318 318 319 321 321 321 319 317 315 314 314 315 315 315 316 316 316 316 316 316 315 315 315 315 315 314 313 315 315 316 318 319 322 323 323 321 319
315 315 317 322 321 318 318 321 320 317 315 315 317 317 318 319 321 322 320 318 316 314 314 314 314 314 315 315 315 315 315 314 315 314 314 314 314 315 315 316 316 316 317 319 320 322 322 321 320
317 316 315 316 317 319 317 317 316 318 317 316 316 315 317 317 321 321 321 319 317 316 314 314 314 314 314 315 315 314 314 313 313 313 314 314 315 316 316 316 316 316 318 321 321 322 321 318 319
315 314 317 315 321 323 319 321 318 318 318 316 314 314 317 317 319 321 321 320 319 317 316 315 315 315 314 314 314 314 314 314 314 314 314 314 314 315 316 315 315 319 321 321 322 322 320 318 318
315 315 316 316 316 319 319 317 316 316 315 316 315 314 313 317 318 320 320 321 321 320 316 315 314 314 314 314 314 314 315 315 315 315 315 315 315 314 315 317 319 321 321 322 322 322 320 319 316
314 315 315 317 318 318 315 318 316 315 315 315 315 316 314 315 317 318 320 321 321 321 319 317 315 313 314 313 313 314 315 316 316 316 315 317 317 318 317 319 320 321 321 322 322 321 319 317 315

GFSSGP_925_thetae_051.txt.gz
Theta_e
313 315 318 313 317 315 317 317 313 315 325 330 335 337 334 336 338 334 334 338 340 331 336 330 329 330 334 339 339 338 337 337 335 334 332 334 335 335 333 332 331 331 331 330 329 328 328 328 328
313 315 313 311 316 318 319 313 315 315 328 328 329 333 335 335 335 337 335 336 340 336 338 336 330 328 334 338 339 338 339 337 335 333 334 334 334 333 332 331 330 330 329 329 328 328 327 328 327
313 313 315 314 313 318 319 314 315 316 326 330 333 331 335 334 331 333 330 332 341 338 336 337 331 326 331 336 337 337 338 337 336 334 331 332 332 331 331 331 330 330 329 331 329 329 327 326 323
314 313 311 317 317 315 315 316 314 317 325 325 328 330 331 332 331 333 331 332 337 338 336 336 335 328 326 329 336 338 336 335 333 331 330 331 331 331 330 330 330 330 333 333 330 327 324 322 322
310 311 315 315 315 314 313 313 313 322 327 326 329 330 330 334 332 332 333 330 334 337 336 335 333 330 329 333 335 337 335 332 327 331 331 330 331 329 329 330 331 330 331 330 329 322 318 318 320
315 312 317 318 315 314 314 313 323 326 327 326 326 327 332 331 331 331 331 331 333 336 335 332 330 328 330 330 331 333 331 330 332 330 330 330 331 330 329 329 327 326 327 329 323 317 314 314 315
316 316 316 315 316 315 315 321 325 327 329 329 326 327 328 329 330 330 330 331 333 333 335 332 330 327 325 324 328 328 331 329 331 329 328 330 330 329 329 326 322 324 326 323 320 314 311 312 311
313 314 315 315 316 316 314 323 326 328 327 327 324 328 329 329 328 330 330 330 333 332 333 331 329 327 325 325 325 327 326 327 327 328 328 329 330 329 326 319 320 321 323 322 316 313 313 312 312
308 315 316 315 314 315 317 322 324 325 328 329 330 331 329 328 329 331 330 331 332 332 332 331 331 330 326 325 326 325 326 325 325 328 327 329 329 327 319 322 320 320 322 320 317 314 314 312 312
314 315 315 313 313 315 315 321 322 328 327 328 331 328 328 328 330 331 331 331 330 330 332 331 331 331 329 328 326 323 325 325 325 329 327 327 326 320 320 318 320 321 321 319 317 316 314 316 317
312 316 313 313 313 312 313 318 326 328 327 326 330 329 329 329 330 330 330 329 328 329 330 331 330 331 329 326 321 324 325 324 325 328 325 323 318 314 314 316 321 321 320 323 320 316 319 318 317
313 312 313 313 313 314 315 324 328 326 326 323 325 328 329 329 329 328 328 327 326 327 328 328 328 327 326 322 322 324 324 324 323 326 321 315 314 316 313 312 313 313 317 321 319 318 316 313 312
312 313 312 314 314 314 323 327 328 328 325 326 328 328 327 327 326 326 326 327 326 326 326 328 328 326 324 322 321 320 322 322 323 322 317 314 315 313 313 312 312 312 313 314 315 316 315 313 312
314 313 316 315 315 324 325 328 333 329 328 328 330 328 327 326 326 324 324 325 326 324 323 323 324 324 322 321 320 322 320 322 324 321 315 313 313 312 311 312 312 312 311 312 313 313 313 314 312
315 316 315 314 315 322 328 329 331 330 329 330 330 327 326 326 325 324 324 323 324 324 324 321 320 321 322 320 320 319 322 319 321 322 314 314 314 312 311 311 312 313 313 312 311 311 311 311 313
316 314 317 315 318 322 325 321 320 329 331 331 330 328 326 325 324 322 322 322 323 324 324 322 320 319 321 320 319 320 319 318 320 319 319 316 314 313 312 312 312 315 314 313 312 310 309 311 311
314 316 314 315 315 322 323 323 321 330 331 331 330 328 327 325 323 321 321 321 321 322 324 323 322 319 319 320 320 321 320 319 318 317 320 318 314 314 313 313 313 315 316 314 313 310 308 308 309
316 316 314 315 317 320 322 322 321 330 332 332 331 329 327 324 323 321 321 320 321 321 322 323 322 321 320 320 320 320 321 319 317 317 321 320 316 315 314 314 313 314 316 315 314 311 310 309 308
314 314 315 314 313 315 316 317 318 320 331 332 332 330 328 326 323 321 320 320 320 320 320 322 322 321 321 320 320 319 321 319 318 318 321 321 317 316 315 315 314 314 314 316 316 313 312 310 308
314 315 316 314 313 314 317 319 320 322 329 331 332 331 329 327 324 321 320 319 320 320 320 320 321 321 320 321 320 320 320 319 319 320 321 320 317 317 316 316 316 315 314 314 316 316 314 314 311
315 316 316 316 314 315 319 321 319 320 323 326 330 330 329 327 324 322 320 319 319 319 320 319 320 321 321 320 320 320 319 318 317 319 320 318 317 316 316 317 319 319 318 317 317 318 317 316 313
317 314 315 315 316 315 319 322 320 319 320 322 325 329 330 327 325 323 321 319 319 319 319 319 319 319 320 319 320 319 319 319 317 316 318 321 321 319 320 321 321 321 321 321 322 321 320 318 317
316 315 316 316 316 318 319 321 320 317 321 321 322 324 328 327 325 324 323 320 319 319 319 318 319 320 319 319 319 319 320 319 319 317 315 316 319 319 320 318 319 319 319 321 321 321 321 320 318
315 316 317 317 319 323 320 321 320 320 321 321 321 322 324 327 324 324 322 321 319 317 316 317 318 319 319 320 319 319 318 318 318 317 316 317 315 316 315 315 315 315 315 318 321 322 321 321 319
316 318 319 322 323 324 318 319 321 319 318 319 321 320 321 325 325 324 323 321 319 316 314 316 317 318 319 318 318 318 318 318 317 317 317 316 315 314 313 313 314 314 314 314 317 320 322 322 322
317 318 321 322 324 321 317 321 320 319 319 317 317 319 319 322 325 324 324 321 318 316 315 316 316 318 318 318 317 317 317 317 317 317 317 317 316 316 315 314 314 314 314 315 316 318 319 320 320
317 318 317 319 319 322 321 319 318 319 320 319 319 319 321 319 323 324 324 322 320 318 317 316 317 317 317 317 317 317 316 316 316 316 315 315 316 316 316 316 315 315 315 316 317 317 319 320 321
318 317 320 319 321 322 320 321 321 320 320 321 320 320 319 318 321 323 324 323 321 320 318 317 317 317 318 317 317 317 317 316 316 315 315 315 316 316 316 315 315 316 316 316 317 319 320 321 321
317 318 317 318 320 322 322 321 320 321 320 320 319 320 320 319 320 323 324 323 322 321 319 317 317 317 317 317 317 317 316 316 315 315 316 317 316 315 314 314 316 316 317 317 318 319 320 321 320
314 316 317 321 320 320 320 321 317 318 318 318 319 320 318 318 318 321 323 323 322 321 320 318 317 317 316 316 316 316 316 315 315 315 315 315 314 314 315 316 316 317 318 317 317 319 321 321 320

GFSSGP_925_thetae_054.txt.gz
Theta_e
314 318 320 319 321 321 321 321 320 321 324 327 335 336 332 334 334 336 339 339 341 340 340 339 338 339 340 339 340 337 339 339 339 335 335 334 333 335 337 336 335 334 334 333 331 329 329 330 330
318 318 318 320 321 320 322 321 321 321 323 330 334 333 335 334 336 339 339 338 340 337 339 337 334 335 342 342 342 339 340 339 338 335 335 335 334 335 336 334 332 330 331 331 330 330 328 328 325
316 316 320 320 320 320 321 321 321 321 322 329 331 333 335 335 335 338 335 336 339 337 337 336 332 333 338 343 342 340 340 339 337 335 336 335 334 333 333 331 329 329 329 328 328 329 329 326 323
316 317 319 320 320 321 320 321 321 320 325 327 328 330 332 333 334 337 335 336 338 340 338 337 333 333 335 342 341 340 340 338 336 335 335 334 333 332 330 328 328 329 329 328 328 328 327 324 324
318 318 318 320 320 321 321 321 320 321 325 328 329 329 331 335 335 335 336 334 337 340 339 338 333 330 331 333 340 339 338 337 335 334 332 333 332 330 329 330 330 330 330 328 328 327 323 323 323
319 319 318 317 320 321 321 321 320 323 325 328 329 329 330 334 334 335 334 335 338 338 340 337 335 329 330 332 336 339 337 335 334 332 331 332 332 329 329 330 330 331 329 326 325 323 321 321 322
319 319 317 318 320 321 320 323 324 323 326 327 329 330 330 331 332 334 333 335 336 335 337 337 334 333 328 329 333 336 335 333 331 331 332 331 330 329 330 331 331 330 328 320 316 316 317 318 319
318 318 317 316 320 321 319 322 323 325 323 330 328 330 330 332 331 332 333 333 335 335 335 334 332 331 333 330 331 334 333 329 327 329 326 330 330 330 330 329 327 327 327 316 312 313 312 312 315
317 317 317 316 320 320 319 321 323 326 326 330 331 330 332 330 331 332 333 334 334 333 332 332 330 328 328 326 326 329 328 328 327 328 328 329 330 329 327 326 324 327 321 315 312 312 312 314 315
317 318 318 317 319 319 320 320 320 324 325 328 331 331 330 329 330 331 332 333 333 331 333 332 328 327 327 327 329 329 329 330 328 326 324 330 329 327 325 328 323 324 319 315 313 313 313 316 317
317 318 317 317 318 319 320 320 320 324 324 326 329 331 331 330 329 331 332 331 332 331 331 332 330 328 327 325 324 323 328 324 323 325 323 328 327 324 327 328 327 326 320 320 318 317 319 318 317
316 316 316 317 318 319 320 321 324 325 326 327 328 328 330 330 331 331 331 331 331 330 329 331 331 329 327 325 326 326 327 322 324 320 320 327 324 323 325 325 325 325 323 322 321 319 319 319 317
317 317 317 317 317 319 319 322 324 325 327 327 329 330 330 331 330 329 330 330 330 327 328 327 328 329 327 326 325 325 326 321 324 322 323 324 322 322 322 323 324 324 324 323 321 320 319 318 317
317 317 317 318 319 319 321 321 329 324 329 330 331 331 330 329 329 328 328 328 329 326 326 327 325 326 325 323 323 325 325 323 324 323 323 322 321 320 319 319 319 320 322 322 320 319 318 316 316
316 317 318 318 319 319 322 322 328 325 331 332 332 330 329 329 328 327 327 328 326 327 325 323 323 324 324 322 323 324 322 323 322 322 320 320 319 318 317 316 316 317 318 318 317 318 316 316 316
317 318 319 318 318 319 324 321 321 327 331 331 332 330 329 328 327 326 325 325 324 325 323 323 322 322 321 321 321 322 322 322 323 322 321 319 315 315 316 316 316 316 316 316 316 317 317 316 315
318 319 319 319 318 320 325 321 323 327 330 329 332 331 330 329 327 326 324 325 323 323 324 322 321 321 321 321 320 319 319 322 321 320 319 315 315 314 316 316 316 318 316 316 315 315 315 315 315
319 319 318 318 318 319 322 323 321 324 328 330 331 332 330 329 328 325 324 323 323 323 324 323 322 321 321 320 321 321 319 320 321 319 321 320 318 318 317 316 317 319 317 317 316 314 314 313 313
317 317 317 316 317 317 319 320 320 322 325 330 331 332 331 329 328 325 324 322 323 324 323 323 321 321 321 320 321 320 319 318 317 316 320 323 319 318 318 317 318 318 319 319 318 317 315 314 313
316 316 317 316 316 316 317 319 321 322 325 329 330 332 332 330 329 327 325 324 322 324 323 322 322 321 321 321 321 320 320 318 317 317 319 322 321 319 319 318 318 318 320 321 320 319 318 317 314
317 316 317 317 317 317 318 319 320 321 324 327 329 330 331 332 330 328 326 325 324 324 323 322 321 321 320 320 320 320 320 319 318 318 320 321 323 320 319 320 319 319 319 320 321 321 320 320 318
318 317 317 317 318 317 319 321 321 321 321 324 326 331 331 332 330 329 328 326 324 324 324 323 321 321 321 320 320 320 319 319 319 318 319 321 323 322 320 320 321 321 320 320 321 322 321 322 321
317 316 318 318 319 318 318 319 319 320 321 321 321 325 330 331 331 330 328 327 325 324 323 323 322 322 321 321 320 319 319 319 318 318 319 321 322 322 321 321 322 323 324 323 324 323 323 323 323
316 317 318 319 318 321 318 319 319 320 322 321 320 322 326 329 331 330 328 327 326 324 323 322 322 322 321 320 319 319 320 319 319 318 318 319 320 321 321 322 324 323 325 324 324 325 325 324 323
316 318 321 321 321 321 319 321 320 321 321 321 321 321 325 327 330 330 330 329 326 325 323 323 321 321 321 320 321 321 320 321 321 318 318 318 319 319 320 320 321 321 322 323 323 322 325 325 324
318 319 320 321 323 322 321 323 322 321 321 322 321 321 323 327 329 329 330 329 327 326 324 321 322 322 322 321 321 323 322 322 321 320 319 318 317 318 318 319 319 320 320 320 321 321 322 322 323
319 320 319 320 322 324 323 322 321 320 321 321 322 322 323 325 328 328 329 329 328 326 324 321 321 322 322 322 323 322 322 323 322 321 320 319 318 318 318 319 319 319 319 319 320 320 320 321 322
320 319 321 321 322 323 321 322 322 321 321 321 321 322 322 323 324 326 328 328 327 327 325 321 321 321 322 323 323 323 323 323 323 322 321 320 320 319 319 319 319 319 319 319 320 320 320 320 321
320 321 319 321 321 323 323 323 321 322 322 322 322 321 322 323 324 326 327 327 327 327 326 324 323 322 322 322 322 323 323 322 322 322 322 321 320 320 319 319 319 319 319 319 320 320 321 321 321
319 319 320 321 322 322 325 323 321 320 319 320 321 321 321 322 323 324 328 328 327 327 327 326 324 323 322 322 322 322 322 322 322 321 321 321 321 320 320 320 319 319 320 320 320 320 321 321 322